Showing default

CYGFM07, 41890

Orbit data source: Space-Track

CYGFM07, 41890 is an American payload satellite in LEO that was launched on Thu, 15 Dec 2016 UTC via a PEGASUS XL launch vehicle from the Pegasus Launch, Eastern Range Air Space (ERAS). Payload-class satellites include a variety of spacecraft equipped with specific instruments for various scientific and technological missions. These include communications satellites like Starlink; space stations such as the ISS; scientific satellites like the Hubble; Earth observation satellites from companies like Planet Labs, Umbra, and HawkEye 360; GPS; miniature CubeSats for education and research; and military/defense satellites.

Loading next visibility...
Identifier
41890, 2016-078G
Orbit
LEO
Country
Flag of USUS
Related business
Manufacturer
SST-US
Mission
Extended mission Civil Earth Obs Sci
Bus & Motor
CYGNSS, Unknown motor
Mass
29 kg wet, 29 kg dry
Launch date (UTC)
2016-12-15 (9 years ago)
Launch vehicle
PEGASUS XL
Launch site
Pegasus Launch, Eastern Range Air Space (ERAS)
Object type
Payload
Rocket body
Debris
Shape & HBR
Half Hex Cyl + 2 Pan, 2.5 m
Radar Cross Section
0.450 m², Medium (>0.1 m² and < 1m²)

Expand to show TLE details & history
Last TLE update: 21 hours ago

TLE from 21 hours ago
0 CYGFM07
1 41890U 16078G   26033.40047293  .00025384  00000-0  39678-3 0  9995
2 41890  34.9472  42.0655 0006808 329.7621  30.2709 15.52764626507981
Epoch: 2026-02-02T09:36Z
TLE epoch observation values (Epoch: 2026-02-02T09:36:40.861Z)
Latitude
0.00002°
Longitude
125.29898°
Altitude
403.557 km
Speed
7.673 km/s
True Right ascension
02h 48m 15s
True Declination
0° 00' 00"
Sunlit
Object was in daylight at epoch
Visualization orbit readout
Latitude
Unknown
Longitude
Unknown
Altitude
Unknown
Speed
Unknown
Apparent Right ascension
Unknown
Apparent Declination
Unknown
Sunlit
N/A
Visualization observer readout
Local Sidereal Time
08:24:28
Azimuth
Unknown
Elevation
Unknown
Doppler factor
Unknown
Orbital elements
Apogee altitude
416.582 km
Perigee altitude
407.336 km
Semi-major axis
6,790.096 km
Eccentricity
0.00068
Inclination
34.9472°
RAAN
42.0655°
Arg. of periapsis
329.7621°
True anomaly
30.31025°
Mean anomaly
30.2709°
Eccentric anomaly
30.29057°
Mean motion
3.87908 °/min
Orbital period
92.81 mins
BSTAR
0.00039678
Loading maneuver chart data...
Computing Atmospheric mass density...
Loading historical data...
Loading historical data...
Loading historical data...
Loading historical data...
Loading historical data...
Loading historical data...
Loading historical data...

Documentation

Showing up to 5 results
|